This demonstration page uses our WeatherBlox Daily Observations layout. Learn more.

Left ArrowRight Arrow

34.16533, -84.80231

Hourly Observations for October 17, 2021

Temp ( °F °C ) Dew Point ( °F °C ) Humidity (%) Winds ( mph kmh ) Pressure ( in mb ) Visibility ( mi km ) Precip ( " mm )
12:15 am 00:15 Mostly Clear 50 10 43 6 76 76 N N/A 30.18 1022 10 16 N/A
12:35 am 00:35 Mostly Clear 50 10 43 6 76 76 N N/A 30.17 1022 10 16 N/A
12:55 am 00:55 Mostly Clear 50 10 43 6 76 76 WSW 3 6 30.17 1022 10 16 N/A
1:15 am 01:15 Mostly Clear 48 9 43 6 82 82 N N/A 30.17 1022 10 16 N/A
1:35 am 01:35 Mostly Clear 48 9 43 6 82 82 N N/A 30.17 1022 10 16 N/A
1:55 am 01:55 Clear 48 9 43 6 82 82 W 3 6 30.17 1022 10 16 N/A
2:15 am 02:15 Clear 48 9 43 6 82 82 N N/A 30.18 1022 10 16 N/A
2:35 am 02:35 Clear 48 9 43 6 82 82 N N/A 30.18 1022 10 16 N/A
2:55 am 02:55 Clear 48 9 43 6 82 82 N N/A 30.18 1022 10 16 N/A
3:15 am 03:15 Mostly Clear 46 8 43 6 87 87 N N/A 30.19 1022 10 16 N/A
3:35 am 03:35 Mostly Clear 46 8 43 6 87 87 N N/A 30.19 1022 10 16 N/A
3:55 am 03:55 Mostly Clear 46 8 43 6 87 87 N N/A 30.19 1022 10 16 N/A
4:15 am 04:15 Mostly Clear 46 8 43 6 87 87 N N/A 30.19 1022 10 16 N/A
4:35 am 04:35 Mostly Clear 46 8 43 6 87 87 N N/A 30.19 1022 10 16 N/A
4:55 am 04:55 Clear 46 8 43 6 87 87 W 5 7 30.19 1022 10 16 N/A
5:15 am 05:15 Clear 46 8 41 5 82 82 W 5 7 30.19 1022 10 16 N/A
5:35 am 05:35 Clear 46 8 41 5 82 82 W 6 9 30.19 1022 10 16 N/A
5:55 am 05:55 Clear 46 8 41 5 82 82 W 5 7 30.20 1023 10 16 N/A
6:15 am 06:15 Clear 46 8 41 5 82 82 W 6 9 30.20 1023 10 16 N/A
6:35 am 06:35 Clear 46 8 41 5 82 82 W 7 11 30.20 1023 10 16 N/A
6:55 am 06:55 Clear 46 8 41 5 82 82 VRB 6 9 30.21 1023 10 16 N/A
7:15 am 07:15 Clear 45 7 41 5 87 87 W 5 7 30.21 1023 10 16 N/A
7:35 am 07:35 Clear 45 7 41 5 87 87 N N/A 30.21 1023 10 16 N/A
7:55 am 07:55 Sunny 45 7 41 5 87 87 N N/A 30.22 1023 10 16 N/A
8:15 am 08:15 Sunny 46 8 41 5 82 82 N N/A 30.23 1024 10 16 N/A
8:35 am 08:35 Sunny 46 8 41 5 82 82 N N/A 30.23 1024 10 16 N/A
8:55 am 08:55 Sunny 48 9 41 5 76 76 N N/A 30.23 1024 10 16 N/A
9:15 am 09:15 Sunny 50 10 41 5 71 71 N N/A 30.23 1024 10 16 N/A
9:35 am 09:35 Sunny 50 10 43 6 76 76 N 5 7 30.23 1024 10 16 N/A
9:55 am 09:55 Sunny 52 11 43 6 72 72 VRB 6 9 30.24 1024 10 16 N/A
10:15 am 10:15 Sunny 55 13 43 6 63 63 NNE 8 13 30.23 1024 10 16 N/A
10:35 am 10:35 Sunny 55 13 41 5 59 59 VRB 6 9 30.23 1024 10 16 N/A
10:55 am 10:55 Sunny 57 14 39 4 51 51 NNE 10 17 30.23 1024 10 16 N/A
11:15 am 11:15 Sunny 57 14 36 2 44 44 N 9 15 30.23 1024 10 16 N/A
11:35 am 11:35 Sunny 59 15 37 3 45 45 N 9 15 30.23 1024 10 16 N/A
11:55 am 11:55 Sunny 59 15 37 3 45 45 N 8 13 30.23 1024 10 16 N/A
12:15 pm 12:15 Sunny 61 16 37 3 42 42 NNE 10 17 30.22 1023 10 16 N/A
12:35 pm 12:35 Sunny 61 16 37 3 42 42 VRB 7 11 30.22 1023 10 16 N/A
12:55 pm 12:55 Sunny 63 17 36 2 37 37 NNW 9 15 30.21 1023 10 16 N/A
1:15 pm 13:15 Sunny 63 17 36 2 37 37 NNW 8 13 30.21 1023 10 16 N/A
1:35 pm 13:35 Sunny 63 17 36 2 37 37 WNW 8 13 30.20 1023 10 16 N/A
1:55 pm 13:55 Sunny 63 17 36 2 37 37 NNW 10 17 30.19 1022 10 16 N/A
2:15 pm 14:15 Sunny 63 17 36 2 37 37 VRB 5 7 30.19 1022 10 16 N/A
2:35 pm 14:35 Sunny 64 18 36 2 34 34 NNW 9 15 30.19 1022 10 16 N/A
2:55 pm 14:55 Sunny 63 17 36 2 37 37 VRB 7 11 30.18 1022 10 16 N/A
3:15 pm 15:15 Sunny 64 18 37 3 37 37 VRB 7 11 30.17 1022 10 16 N/A
3:35 pm 15:35 Sunny 64 18 37 3 37 37 WNW 9 15 30.17 1022 10 16 N/A
3:55 pm 15:55 Sunny 64 18 37 3 37 37 VRB 6 9 30.16 1021 10 16 N/A
4:15 pm 16:15 Sunny 64 18 36 2 34 34 N 8 13 30.16 1021 10 16 N/A
4:35 pm 16:35 Sunny 64 18 36 2 34 34 NNW 8 13 30.15 1021 10 16 N/A
4:55 pm 16:55 Sunny 64 18 36 2 34 34 N 8 13 30.15 1021 10 16 N/A
5:15 pm 17:15 Sunny 64 18 37 3 37 37 VRB 7 11 30.16 1021 10 16 N/A
5:35 pm 17:35 Sunny 64 18 37 3 37 37 NNW 8 13 30.15 1021 10 16 N/A
5:55 pm 17:55 Sunny 64 18 37 3 37 37 VRB 6 9 30.15 1021 10 16 N/A
6:15 pm 18:15 Sunny 64 18 39 4 40 40 VRB 6 9 30.15 1021 10 16 N/A
6:35 pm 18:35 Sunny 63 17 39 4 42 42 VRB 5 7 30.15 1021 10 16 N/A
6:55 pm 18:55 Sunny 61 16 41 5 48 48 N N/A 30.16 1021 10 16 N/A
7:15 pm 19:15 Clear 59 15 41 5 51 51 N N/A 30.17 1022 10 16 N/A
7:35 pm 19:35 Clear 59 15 43 6 55 55 N N/A 30.17 1022 10 16 N/A
7:55 pm 19:55 Clear 57 14 45 7 63 63 N N/A 30.18 1022 10 16 N/A
8:15 pm 20:15 Clear 55 13 45 7 67 67 N N/A 30.18 1022 9 14 N/A
8:35 pm 20:35 Hazy 54 12 45 7 72 72 N N/A 30.19 1022 2 2 N/A
8:55 pm 20:55 Clear 52 11 45 7 77 77 N N/A 30.21 1023 8 13 N/A
9:15 pm 21:15 Clear 52 11 45 7 77 77 N N/A 30.21 1023 10 16 N/A
9:35 pm 21:35 Clear 50 10 46 8 88 88 N N/A 30.21 1023 10 16 N/A
9:55 pm 21:55 Clear 50 10 46 8 88 88 N N/A 30.22 1023 10 16 N/A
10:15 pm 22:15 Clear with Mist and Fog 48 9 46 8 94 94 N N/A 30.22 1023 2 3 N/A
10:35 pm 22:35 Clear 48 9 46 8 94 94 N N/A 30.22 1023 10 16 N/A
10:55 pm 22:55 Clear 46 8 45 7 93 93 N N/A 30.24 1024 10 16 N/A
11:15 pm 23:15 Clear 48 9 45 7 87 87 N N/A 30.24 1024 10 16 N/A
11:35 pm 23:35 Clear 46 8 45 7 93 93 N N/A 30.25 1024 8 13 N/A
11:55 pm 23:55 Clear 46 8 45 7 93 93 N N/A 30.25 1024 10 16 N/A

Powered by AerisWeather